Weather History for KIKT - January, 2014

Change the Weather History Date:

Sunday, January 5, 2014

  Actual Average Record
Temperature  
Mean Temperature 68 °F -  
Max Temperature 77 °F - - ()
Min Temperature 60 °F - - ()
Cooling Degree Days 4    
Growing Degree Days 18 (Base 50)    
Moisture  
Dew Point 63 °F    
Average Humidity 76    
Maximum Humidity 88    
Minimum Humidity 65    
Precipitation  
Precipitation 0.00 in - - ()
Sea Level Pressure  
Sea Level Pressure 29.97 in    
Wind  
Wind Speed 11 mph (SW)    
Max Wind Speed 25 mph    
Max Gust Speed 33 mph    
Visibility 10 miles    
Events      
T = Trace of Precipitation, MM = Missing Value Source: NWS Daily Summary

Daily Weather History Graph

Daily Weather History Graph

Search for Another Location

Airport or City:

Trip Planner

Search our weather history database for the weather conditions in past years. The results will help you decide how hot, cold, wet, or windy it might be!

Date:

Astronomy

Jan. 05, 2014 Rise Set
Actual Time 6:46 AM CST 5:10 PM CST
Civil Twilight 6:20 AM CST 5:36 PM CST
Nautical Twilight 5:51 AM CST 6:05 PM CST
Astronomical Twilight 5:22 AM CST 6:34 PM CST
Moon 9:53 AM CST (1/5) 10:10 PM CST (1/5)
Length of Visible Light 11h 15m
Length of Day
10h 24m
Waxing Crescent, 25% of the Moon is Illuminated
Jan 5
Waxing Crescent
Jan 7
First Quarter
Jan 15
Full
Jan 23
Last Quarter
Jan 30
New

Hourly Weather History & Observations

Time (CST) Temp. Dew Point Humidity Pressure Visibility Wind Dir Wind Speed Gust Speed Precip Events Conditions
12:15 AM 69.8 °F 59.0 °F 68% 30.00 in 10.0 mi Variable 10.4 mph 20.7 mph N/A   Mostly Cloudy
12:35 AM 68.0 °F 59.0 °F 73% 30.00 in 10.0 mi SSW 13.8 mph 21.9 mph N/A   Scattered Clouds
12:55 AM 69.8 °F 59.0 °F 68% 30.00 in 10.0 mi SSW 15.0 mph 23.0 mph N/A   Mostly Cloudy
1:15 AM 69.8 °F 60.8 °F 73% 30.00 in 10.0 mi SSW 12.7 mph 20.7 mph N/A   Overcast
1:35 AM 68.0 °F 60.8 °F 78% 30.00 in 10.0 mi SSW 10.4 mph 19.6 mph N/A   Mostly Cloudy
1:55 AM 68.0 °F 60.8 °F 78% 29.99 in 10.0 mi SSW 9.2 mph 16.1 mph N/A   Scattered Clouds
2:15 AM 68.0 °F 60.8 °F 78% 30.00 in 10.0 mi Variable 6.9 mph 17.3 mph N/A   Partly Cloudy
2:35 AM 68.0 °F 60.8 °F 78% 30.00 in 10.0 mi SSW 11.5 mph 18.4 mph N/A   Scattered Clouds
2:55 AM 69.8 °F 60.8 °F 73% 29.99 in 10.0 mi SW 8.1 mph 16.1 mph N/A   Mostly Cloudy
3:15 AM 68.0 °F 60.8 °F 78% 29.99 in 10.0 mi Variable 5.8 mph 13.8 mph N/A   Scattered Clouds
3:35 AM 69.8 °F 60.8 °F 73% 29.99 in 10.0 mi Variable 9.2 mph 16.1 mph N/A   Mostly Cloudy
3:55 AM 69.8 °F 60.8 °F 73% 29.99 in 10.0 mi SW 11.5 mph - N/A   Mostly Cloudy
4:15 AM 68.0 °F 60.8 °F 78% 29.98 in 10.0 mi SW 10.4 mph - N/A   Mostly Cloudy
4:35 AM 68.0 °F 62.6 °F 83% 29.97 in 10.0 mi SSW 8.1 mph 13.8 mph N/A   Mostly Cloudy
4:55 AM 68.0 °F 62.6 °F 83% 29.97 in 10.0 mi SSW 10.4 mph - N/A   Mostly Cloudy
5:15 AM 68.0 °F 62.6 °F 83% 29.97 in 10.0 mi Variable 6.9 mph - N/A   Mostly Cloudy
5:35 AM 68.0 °F 62.6 °F 83% 29.98 in 10.0 mi SSW 9.2 mph - N/A   Overcast
5:55 AM 69.8 °F 62.6 °F 78% 29.98 in 10.0 mi SSW 8.1 mph - N/A   Overcast
6:15 AM 68.0 °F 62.6 °F 83% 29.98 in 10.0 mi SSW 8.1 mph - N/A   Mostly Cloudy
6:35 AM 69.8 °F 62.6 °F 78% 29.98 in 10.0 mi Variable 6.9 mph - N/A   Partly Cloudy
6:55 AM 69.8 °F 62.6 °F 78% 29.99 in 10.0 mi Variable 5.8 mph 11.5 mph N/A   Clear
7:15 AM 69.8 °F 62.6 °F 78% 29.99 in 9.0 mi SSW 6.9 mph - N/A   Partly Cloudy
7:35 AM 69.8 °F 62.6 °F 78% 30.01 in 10.0 mi SSW 8.1 mph - N/A   Clear
7:55 AM 71.6 °F 62.6 °F 73% 30.01 in 10.0 mi SSW 9.2 mph - N/A   Scattered Clouds
8:15 AM 73.4 °F 62.6 °F 69% 30.01 in 10.0 mi SSW 9.2 mph - N/A   Mostly Cloudy
8:35 AM 75.2 °F 62.6 °F 65% 30.01 in 9.0 mi SSW 10.4 mph - N/A   Partly Cloudy
8:55 AM 75.2 °F 62.6 °F 65% 30.02 in 10.0 mi SW 8.1 mph - N/A   Clear
9:15 AM 75.2 °F 62.6 °F 65% 30.02 in 10.0 mi SW 9.2 mph - N/A   Partly Cloudy
9:35 AM 77.0 °F 64.4 °F 65% 30.02 in 10.0 mi SW 8.1 mph - N/A   Scattered Clouds
9:55 AM 75.2 °F 64.4 °F 69% 30.02 in 10.0 mi SW 9.2 mph - N/A   Mostly Cloudy
10:15 AM 75.2 °F 64.4 °F 69% 30.01 in 10.0 mi SW 11.5 mph - N/A   Overcast
10:35 AM 77.0 °F 64.4 °F 65% 30.00 in 10.0 mi SW 11.5 mph - N/A   Overcast
10:55 AM 75.2 °F 64.4 °F 69% 29.99 in 10.0 mi Variable 10.4 mph 20.7 mph N/A   Overcast
11:15 AM 75.2 °F 64.4 °F 69% 29.98 in 10.0 mi SW 11.5 mph - N/A   Overcast
11:35 AM 77.0 °F 64.4 °F 65% 29.97 in 10.0 mi SW 10.4 mph 17.3 mph N/A   Overcast
11:55 AM 75.2 °F 64.4 °F 69% 29.96 in 9.0 mi Variable 5.8 mph 15.0 mph N/A   Overcast
12:15 PM 75.2 °F 64.4 °F 69% 29.95 in 10.0 mi SW 11.5 mph - N/A   Mostly Cloudy
12:35 PM 75.2 °F 64.4 °F 69% 29.94 in 10.0 mi WSW 9.2 mph 18.4 mph N/A   Mostly Cloudy
12:55 PM 77.0 °F 64.4 °F 65% 29.94 in 10.0 mi Variable 5.8 mph 19.6 mph N/A   Scattered Clouds
1:15 PM 75.2 °F 64.4 °F 69% 29.93 in 9.0 mi Variable 4.6 mph 15.0 mph N/A   Clear
1:35 PM 75.2 °F 64.4 °F 69% 29.94 in 9.0 mi Variable 3.5 mph 13.8 mph N/A   Mostly Cloudy
1:55 PM 73.4 °F 62.6 °F 69% 29.93 in 10.0 mi WSW 9.2 mph 26.5 mph N/A   Overcast
2:15 PM 73.4 °F 64.4 °F 73% 29.93 in 9.0 mi SW 11.5 mph 20.7 mph N/A   Mostly Cloudy
2:35 PM 73.4 °F 64.4 °F 73% 29.93 in 10.0 mi Variable 15.0 mph 25.3 mph N/A   Mostly Cloudy
2:55 PM 73.4 °F 64.4 °F 73% 29.94 in 10.0 mi WSW 15.0 mph 21.9 mph N/A   Mostly Cloudy
3:15 PM 73.4 °F 64.4 °F 73% 29.93 in 10.0 mi WSW 17.3 mph 24.2 mph N/A   Overcast
3:35 PM 73.4 °F 64.4 °F 73% 29.94 in 9.0 mi WSW 20.7 mph - N/A   Mostly Cloudy
3:55 PM 73.4 °F 64.4 °F 73% 29.94 in 9.0 mi Variable 6.9 mph 25.3 mph N/A   Mostly Cloudy
4:15 PM 73.4 °F 66.2 °F 78% 29.94 in 9.0 mi Variable 16.1 mph 23.0 mph N/A   Overcast
4:35 PM 73.4 °F 66.2 °F 78% 29.94 in 9.0 mi SW 17.3 mph 24.2 mph N/A   Overcast
4:55 PM 73.4 °F 64.4 °F 73% 29.94 in 9.0 mi SW 15.0 mph 24.2 mph N/A   Overcast
5:15 PM 71.6 °F 64.4 °F 78% 29.94 in 8.0 mi Variable 9.2 mph 25.3 mph N/A   Scattered Clouds
5:35 PM 71.6 °F 66.2 °F 83% 29.94 in 10.0 mi Variable 6.9 mph 21.9 mph N/A   Clear
5:55 PM 71.6 °F 66.2 °F 83% 29.94 in 10.0 mi Variable 15.0 mph 24.2 mph N/A   Clear
6:15 PM 71.6 °F 64.4 °F 78% 29.94 in 10.0 mi SW 19.6 mph 26.5 mph N/A   Clear
6:35 PM 71.6 °F 64.4 °F 78% 29.95 in 10.0 mi Variable 15.0 mph 26.5 mph N/A   Clear
6:55 PM 71.6 °F 64.4 °F 78% 29.95 in 10.0 mi SW 21.9 mph 27.6 mph N/A   Clear
7:15 PM 71.6 °F 66.2 °F 83% 29.95 in 10.0 mi WSW 10.4 mph 25.3 mph N/A   Clear
7:35 PM 71.6 °F 66.2 °F 83% 29.95 in 10.0 mi Variable 9.2 mph 23.0 mph N/A   Clear
7:55 PM 71.6 °F 66.2 °F 83% 29.95 in 10.0 mi Variable 11.5 mph 25.3 mph N/A   Clear
8:15 PM 71.6 °F 66.2 °F 83% 29.95 in 10.0 mi Variable 15.0 mph 27.6 mph N/A   Clear
8:35 PM 71.6 °F 66.2 °F 83% 29.95 in 10.0 mi SW 25.3 mph - N/A   Clear
8:55 PM 71.6 °F 66.2 °F 83% 29.95 in 10.0 mi Variable 10.4 mph 28.8 mph N/A   Clear
9:15 PM 71.6 °F 66.2 °F 83% 29.95 in 10.0 mi Variable 8.1 mph 27.6 mph N/A   Partly Cloudy
9:35 PM 71.6 °F 68.0 °F 88% 29.95 in 10.0 mi Variable 9.2 mph 21.9 mph N/A   Mostly Cloudy
9:55 PM 71.6 °F 68.0 °F 88% 29.95 in 10.0 mi Variable 10.4 mph 24.2 mph N/A   Overcast
10:15 PM 71.6 °F 68.0 °F 88% 29.94 in 9.0 mi WSW 9.2 mph 19.6 mph N/A   Overcast
10:35 PM 73.4 °F 68.0 °F 83% 29.93 in 9.0 mi Variable 5.8 mph 16.1 mph N/A   Mostly Cloudy
10:55 PM 66.2 °F 62.6 °F 88% 29.96 in 1.2 mi NW 17.3 mph 31.1 mph N/A   Overcast
11:15 PM 62.6 °F 59.0 °F 88% 29.97 in 7.0 mi NW 23.0 mph 33.4 mph N/A   Overcast
11:35 PM 60.8 °F 57.2 °F 88% 29.97 in 9.0 mi NW 18.4 mph 29.9 mph N/A   Overcast
11:55 PM 60.8 °F 55.4 °F 82% 29.98 in 8.0 mi NW 21.9 mph 33.4 mph N/A   Overcast